FW2167 Weather Reports


time (UTC)temp
F
wind
direction
speed
knots
gust
knots
rain 1hr
in
rain 24hr
in
rain mn
in
humidity
%
barometer
mb
20260509033203 67 283 8.7 15.6 0.00 0.24 0.12 72 1004.1
20260509032704 67 283 7.0 12.2 0.00 0.24 0.12 77 1003.8
20260509032205 66 294 6.1 11.3 0.00 0.24 0.12 78 1003.7
20260509031704 65 300 6.1 12.2 0.00 0.24 0.12 80 1004.1
20260509030704 65 279 7.8 13.0 0.00 0.24 0.12 79 1004.3
20260509030204 66 286 7.8 11.3 0.00 0.24 0.12 78 1004.1
20260509025704 65 279 7.0 11.3 0.00 0.24 0.12 78 1004.1
20260509025205 65 287 6.1 10.4 0.00 0.24 0.12 77 1004.3
20260509024704 66 292 7.8 11.3 0.00 0.24 0.12 76 1004.3
20260509023704 67 293 9.6 13.9 0.00 0.24 0.12 74 1004.2
20260509023204 68 299 11.3 17.4 0.00 0.24 0.12 74 1004.1
20260509022704 68 297 8.7 13.9 0.00 0.24 0.12 73 1004.3
20260509022204 68 285 7.8 15.6 0.00 0.24 0.12 75 1004.2
20260509021703 68 292 7.8 12.2 0.00 0.24 0.12 75 1004.2
20260509021204 68 283 8.7 13.9 0.00 0.24 0.12 75 1004.3
20260509020704 67 292 7.0 15.6 0.00 0.24 0.12 75 1004.1
20260509015204 67 314 8.7 13.0 0.00 0.24 0.12 76 1004.4
20260509014203 67 296 7.8 13.0 0.00 0.24 0.12 78 1004.5
20260509013704 67 309 10.4 17.4 0.00 0.24 0.12 78 1004.5
20260509012705 67 321 6.1 18.2 0.00 0.24 0.12 78 1004.5
20260509012204 67 316 10.4 15.6 0.00 0.24 0.12 78 1004.4
20260509011204 67 278 8.7 14.8 0.00 0.24 0.12 77 1004.6
20260509010704 67 290 7.8 14.8 0.00 0.24 0.12 77 1004.8
20260509010204 67 290 9.6 13.0 0.00 0.24 0.12 78 1004.7
20260509005704 67 290 8.7 14.8 0.00 0.24 0.12 77 1004.8
20260509005204 66 303 9.6 13.9 0.00 0.24 0.12 78 1004.9
20260509004704 66 280 9.6 18.2 0.00 0.24 0.12 77 1005.2
20260509003704 66 282 8.7 13.9 0.01 0.24 0.12 78 1005.2
20260509003205 66 270 8.7 13.0 0.01 0.24 0.12 81 1005.4
20260509002704 66 263 7.8 12.2 0.01 0.24 0.12 81 1005.5
20260509002204 65 278 6.1 12.2 0.01 0.24 0.12 86 1005.4
20260509001704 64 277 8.7 13.0 0.01 0.24 0.12 88 1005.6
20260509001205 63 268 7.0 11.3 0.01 0.24 0.12 88 1005.9
20260509000703 63 273 4.3 7.8 0.01 0.24 0.12 88 1005.9
20260509000204 63 271 4.3 11.3 0.01 0.24 0.12 86 1005.9
20260508235704 64 254 6.1 14.8 0.00 0.24 0.12 84 1006.1
20260508235204 63 283 6.1 13.0 0.00 0.24 0.12 92 1006.4
20260508234705 62 288 7.8 13.0 0.00 0.24 0.12 89 1006.1
20260508234204 63 319 10.4 13.9 0.00 0.23 0.11 87 1006.1
20260508233704 64 311 8.7 13.9 0.00 0.23 0.11 85 1006.1
20260508232704 65 319 6.1 10.4 0.00 0.23 0.11 84 1006.2
20260508232204 66 313 5.2 10.4 0.00 0.23 0.11 85 1006.2
20260508231704 66 300 6.1 10.4 0.01 0.23 0.11 83 1006.4
20260508231205 65 299 5.2 10.4 0.01 0.23 0.11 84 1006.5
20260508230204 63 305 4.3 7.0 0.01 0.23 0.11 89 1006.5
20260508225204 62 297 4.3 8.7 0.01 0.23 0.11 86 1006.6
20260508224704 63 294 5.2 7.8 0.01 0.23 0.11 86 1006.8
20260508224204 63 305 6.1 8.7 0.01 0.23 0.11 88 1006.8
20260508222704 63 296 6.1 11.3 0.01 0.23 0.11 87 1006.8
20260508222204 64 299 7.8 15.6 0.01 0.23 0.11 84 1006.9
20260508221704 65 296 8.7 13.9 0.00 0.22 0.11 85 1007.0
20260508221204 65 310 10.4 14.8 0.00 0.22 0.11 84 1007.0
20260508220704 66 306 8.7 14.8 0.00 0.22 0.11 84 1007.2
20260508220204 65 311 7.8 12.2 0.00 0.22 0.11 85 1007.0
20260508215704 65 321 7.0 13.9 0.00 0.22 0.11 87 1007.2
20260508214705 64 306 7.0 12.2 0.00 0.22 0.11 88 1007.1
20260508213704 63 313 5.2 8.7 0.00 0.22 0.11 88 1007.2
20260508213204 63 310 4.3 8.7 0.00 0.22 0.11 89 1007.1
20260508212704 63 314 5.2 11.3 0.00 0.22 0.11 90 1007.1
20260508212204 63 318 7.8 11.3 0.00 0.22 0.11 91 1007.3
20260508211204 62 291 4.3 7.0 0.00 0.22 0.11 94 1007.4
20260508210704 62 342 2.6 6.1 0.00 0.22 0.11 95 1007.3
20260508210204 61 326 4.3 6.1 0.00 0.22 0.11 97 1007.1
20260508205705 60 332 3.5 6.1 0.00 0.22 0.11 98 1007.3
20260508205205 60 348 3.5 5.2 0.00 0.22 0.11 98 1007.1
20260508204204 60 307 1.7 2.6 0.00 0.22 0.11 98 1007.0
20260508203704 59 322 0.9 2.6 0.00 0.22 0.11 98 1007.2
20260508203205 59 301 1.7 2.6 0.00 0.22 0.11 98 1007.1
20260508202704 59 10 1.7 2.6 0.00 0.22 0.11 98 1007.1
20260508202205 58 4 1.7 1.7 0.00 0.22 0.11 98 1007.0
20260508201704 58 337 0.9 1.7 0.00 0.22 0.11 98 1007.0
20260508201205 58 349 1.7 1.7 0.00 0.22 0.11 98 1006.9
20260508200204 58 351 0.0 2.6 0.00 0.22 0.11 98 1006.9
20260508195705 58 70 0.9 1.7 0.00 0.22 0.11 98 1006.8
20260508195204 58 259 0.0 0.9 0.00 0.22 0.11 98 1006.8
20260508194705 57 281 0.0 1.7 0.00 0.22 0.11 98 1006.8
20260508194204 57 14 0.0 1.7 0.00 0.22 0.11 98 1006.7
20260508193704 56 293 0.0 0.9 0.00 0.22 0.11 98 1006.6
20260508193204 56 224 0.0 0.9 0.00 0.22 0.11 98 1006.5
20260508192704 56 292 0.9 0.9 0.00 0.22 0.11 98 1006.6
20260508191205 56 296 0.0 1.7 0.00 0.22 0.11 98 1006.6
20260508190704 56 349 0.9 1.7 0.00 0.22 0.11 98 1006.5
20260508190205 56 0 0.9 1.7 0.00 0.22 0.11 98 1006.3
20260508185204 56 68 0.9 0.9 0.00 0.22 0.11 98 1006.5
20260508184705 56 142 0.0 1.7 0.00 0.22 0.11 98 1006.5
20260508184204 56 338 0.9 1.7 0.00 0.22 0.11 98 1006.4
20260508183705 56 34 0.0 1.7 0.00 0.22 0.11 98 1006.3
20260508183205 56 74 0.9 2.6 0.00 0.22 0.11 98 1006.6
20260508182704 55 92 1.7 1.7 0.00 0.22 0.11 97 1006.4
20260508182205 55 355 0.9 1.7 0.00 0.22 0.11 97 1006.4
20260508181704 54 343 0.9 2.6 0.00 0.22 0.11 97 1006.5
20260508181204 54 300 1.7 2.6 0.00 0.22 0.11 97 1006.6
20260508180705 55 308 1.7 1.7 0.00 0.22 0.11 97 1006.5
20260508180204 55 353 0.9 1.7 0.00 0.22 0.11 97 1006.3
20260508175704 55 354 0.9 1.7 0.00 0.22 0.11 97 1006.3
20260508175205 55 322 0.9 1.7 0.00 0.22 0.11 97 1006.5
20260508174704 55 114 0.0 0.9 0.00 0.22 0.11 96 1006.4
20260508173705 56 315 0.0 0.0 0.00 0.22 0.11 96 1006.4
20260508172204 57 311 1.7 4.3 0.00 0.22 0.11 97 1006.4
20260508171704 58 0 2.6 5.2 0.00 0.22 0.11 97 1006.3
20260508171204 58 9 2.6 5.2 0.00 0.22 0.11 97 1006.5
20260508170704 58 351 3.5 5.2 0.00 0.22 0.11 97 1006.3
20260508165704 58 349 3.5 6.1 0.00 0.22 0.11 97 1006.3
20260508165205 58 10 4.3 7.8 0.00 0.22 0.11 97 1006.2
20260508164705 58 25 4.3 7.8 0.00 0.22 0.11 97 1006.3
20260508164204 58 19 4.3 7.8 0.00 0.22 0.11 97 1006.3
20260508163704 58 22 4.3 7.0 0.00 0.22 0.11 97 1006.4
20260508163205 58 14 4.3 6.1 0.00 0.22 0.11 97 1006.6
20260508162704 58 13 4.3 5.2 0.00 0.22 0.11 97 1006.6
20260508161704 58 357 3.5 6.1 0.01 0.22 0.11 96 1006.8
20260508161204 58 7 3.5 5.2 0.01 0.22 0.11 96 1006.6
20260508160705 58 4 4.3 7.0 0.01 0.22 0.11 96 1006.7
20260508160204 58 18 4.3 7.8 0.01 0.22 0.11 96 1006.5
20260508155704 59 23 6.1 7.8 0.01 0.22 0.11 96 1006.6
20260508155204 59 19 2.6 6.1 0.01 0.22 0.11 96 1006.7
20260508154704 59 19 4.3 7.8 0.01 0.22 0.11 96 1006.9
20260508154204 59 13 4.3 6.1 0.01 0.22 0.11 96 1006.9
20260508153704 59 5 3.5 6.1 0.01 0.22 0.11 96 1007.0
20260508153205 59 8 5.2 7.0 0.00 0.22 0.10 96 1007.1
20260508152704 59 5 2.6 7.0 0.00 0.22 0.10 96 1007.2
20260508152204 59 355 2.6 4.3 0.00 0.22 0.10 96 1007.2
20260508151704 59 21 1.7 2.6 0.00 0.22 0.10 96 1007.2
20260508151205 59 335 1.7 2.6 0.00 0.22 0.10 96 1007.2
20260508150704 59 328 2.6 4.3 0.01 0.22 0.10 96 1007.4
20260508150205 59 338 1.7 2.6 0.04 0.22 0.10 96 1007.3
20260508145705 59 13 1.7 4.3 0.04 0.22 0.10 96 1007.7
20260508144704 59 14 1.7 2.6 0.04 0.22 0.10 96 1007.2
20260508144204 59 18 1.7 1.7 0.04 0.22 0.10 96 1007.1
20260508143705 59 12 0.9 1.7 0.04 0.22 0.10 96 1007.1
20260508143204 59 18 1.7 1.7 0.04 0.22 0.10 96 1007.1
20260508142705 59 359 0.9 1.7 0.04 0.22 0.10 96 1006.9
20260508142204 59 5 0.9 1.7 0.04 0.22 0.10 96 1007.1
20260508141704 59 16 0.9 2.6 0.04 0.21 0.09 96 1007.3
20260508141204 59 4 1.7 4.3 0.05 0.21 0.09 95 1007.5
20260508140705 59 337 2.6 5.2 0.04 0.20 0.09 95 1007.6
20260508135705 60 319 4.3 6.1 0.01 0.17 0.06 95 1007.6
20260508135204 60 332 2.6 4.3 0.01 0.17 0.06 95 1007.5
20260508134704 60 330 4.3 8.7 0.02 0.17 0.06 95 1007.4
20260508134204 60 330 2.6 5.2 0.02 0.17 0.06 95 1007.4
20260508133705 60 306 3.5 7.0 0.03 0.17 0.06 95 1007.5
20260508132705 60 277 3.5 7.0 0.06 0.17 0.06 95 1007.6
20260508132204 60 278 4.3 8.7 0.06 0.17 0.06 95 1007.7
20260508131705 61 278 5.2 10.4 0.06 0.17 0.06 94 1007.5
20260508131204 61 291 6.1 11.3 0.05 0.17 0.05 94 1007.7
20260508130704 61 289 6.1 11.3 0.04 0.16 0.04 94 1007.6
20260508130205 61 287 8.7 14.8 0.04 0.16 0.04 94 1007.9
20260508124205 63 297 12.2 17.4 0.04 0.16 0.04 94 1007.8
20260508123704 63 311 10.4 19.1 0.03 0.15 0.03 94 1007.6
20260508123204 63 346 7.0 14.8 0.00 0.12 0.00 93 1007.0
20260508122704 63 17 9.6 15.6 0.00 0.12 0.00 93 1006.4
20260508122204 63 12 8.7 15.6 0.00 0.12 0.00 92 1006.7
20260508121704 63 14 7.8 15.6 0.00 0.12 0.00 92 1006.7
20260508120704 63 28 8.7 18.2 0.00 0.12 0.00 91 1006.9
20260508120204 63 18 7.8 14.8 0.00 0.12 0.00 91 1006.9
20260508115704 62 18 8.7 13.0 0.00 0.12 0.12 91 1007.2
20260508115205 62 27 7.8 12.2 0.00 0.12 0.12 91 1007.3
20260508114704 62 26 4.3 10.4 0.00 0.12 0.12 91 1007.2
20260508114204 62 33 4.3 7.8 0.01 0.12 0.12 91 1007.4
20260508113705 62 16 3.5 6.1 0.02 0.12 0.12 91 1007.5
20260508113205 62 25 2.6 4.3 0.02 0.12 0.12 91 1007.6
20260508112704 62 29 1.7 4.3 0.03 0.12 0.12 91 1007.5
20260508111704 62 31 1.7 4.3 0.03 0.12 0.12 92 1007.7
20260508111204 62 51 1.7 4.3 0.04 0.12 0.12 91 1007.6
20260508110704 62 50 1.7 6.1 0.05 0.12 0.12 91 1007.7
20260508110204 62 49 2.6 4.3 0.06 0.12 0.12 91 1008.2
20260508105704 62 34 3.5 5.2 0.07 0.12 0.12 90 1008.1
20260508105204 63 0 2.6 8.7 0.08 0.12 0.12 90 1008.3
20260508104705 63 18 5.2 14.8 0.08 0.11 0.11 89 1008.4
20260508104204 63 17 5.2 12.2 0.07 0.11 0.11 89 1008.5
20260508103704 63 14 6.1 8.7 0.07 0.10 0.10 89 1008.5
20260508103204 63 18 6.1 11.3 0.06 0.09 0.09 89 1008.6
20260508102204 63 0 5.2 14.8 0.06 0.09 0.09 89 1009.0
20260508101704 63 13 5.2 10.4 0.06 0.09 0.09 88 1009.0
20260508101205 64 15 7.0 13.0 0.06 0.08 0.08 88 1009.0
20260508100704 64 22 5.2 13.9 0.04 0.07 0.07 87 1009.0
20260508095704 64 11 5.2 13.9 0.02 0.05 0.05 86 1009.5
20260508095204 64 16 7.8 17.4 0.02 0.04 0.04 85 1009.3
20260508094704 64 19 5.2 11.3 0.01 0.03 0.03 85 1009.5
20260508093704 64 2 3.5 7.8 0.01 0.03 0.03 86 1009.8
20260508093204 64 351 5.2 10.4 0.01 0.03 0.03 86 1010.0
20260508092704 64 331 4.3 12.2 0.01 0.03 0.03 86 1010.0
20260508092204 64 355 4.3 12.2 0.00 0.03 0.03 86 1010.2
20260508091704 64 341 5.2 10.4 0.01 0.03 0.03 87 1010.1
20260508091204 64 356 5.2 8.7 0.01 0.03 0.03 87 1010.0
20260508090704 63 333 4.3 8.7 0.01 0.03 0.03 88 1009.7
20260508090205 64 320 2.6 7.0 0.01 0.03 0.03 88 1009.9
20260508085704 63 323 5.2 10.4 0.01 0.03 0.03 88 1010.0
20260508085204 63 319 4.3 6.1 0.01 0.02 0.02 89 1009.9
20260508084205 63 56 2.6 5.2 0.01 0.02 0.02 90 1009.3
20260508083704 63 83 1.7 2.6 0.02 0.02 0.02 90 1009.7
20260508083204 63 33 0.9 1.7 0.02 0.02 0.02 90 1009.9
20260508082704 63 62 0.9 5.2 0.02 0.02 0.02 90 1010.0
20260508082203 63 30 2.6 4.3 0.02 0.02 0.02 90 1009.9
20260508081204 63 65 1.7 4.3 0.02 0.02 0.02 89 1009.8
20260508080704 63 36 1.7 4.3 0.02 0.02 0.02 89 1010.2
20260508080204 63 11 2.6 5.2 0.02 0.02 0.02 89 1010.4
20260508075704 63 0 2.6 7.0 0.02 0.02 0.02 89 1010.3
20260508075204 63 18 1.7 11.3 0.02 0.02 0.02 89 1010.0
20260508074704 63 19 3.5 8.7 0.01 0.01 0.01 89 1010.1
20260508074204 63 24 6.1 11.3 0.01 0.01 0.01 89 1010.0
20260508073704 62 38 5.2 10.4 0.01 0.01 0.01 90 1009.8
20260508073204 62 47 6.1 12.2 0.01 0.01 0.01 90 1009.9
20260508072704 62 36 5.2 10.4 0.01 0.01 0.01 91 1009.8
20260508072204 62 31 2.6 4.3 0.01 0.01 0.01 91 1010.2
20260508071704 62 67 0.9 4.3 0.00 0.00 0.00 91 1010.1
20260508071204 62 114 0.9 1.7 0.00 0.00 0.00 91 1010.1
20260508070704 62 23 0.0 2.6 0.00 0.00 0.00 92 1010.3
20260508070204 62 52 1.7 4.3 0.00 0.00 0.00 92 1010.3
20260508065703 62 58 1.7 2.6 0.00 0.00 0.00 92 1010.4
20260508065204 62 215 1.7 1.7 0.00 0.00 0.00 92 1010.5
20260508064704 62 239 1.7 1.7 0.00 0.00 0.00 92 1010.7
20260508064205 62 277 1.7 1.7 0.00 0.00 0.00 92 1010.9
20260508063704 62 273 0.9 2.6 0.00 0.00 0.00 92 1010.8
20260508063204 62 32 0.9 4.3 0.00 0.00 0.00 92 1010.8
20260508062705 62 5 1.7 4.3 0.00 0.00 0.00 92 1010.8
20260508062203 62 7 1.7 2.6 0.00 0.00 0.00 92 1011.2
20260508061704 62 55 0.9 2.6 0.00 0.00 0.00 92 1011.4
20260508061204 62 3 0.9 2.6 0.00 0.00 0.00 92 1011.8
20260508060704 63 311 1.7 5.2 0.00 0.00 0.00 91 1011.7
20260508060204 63 313 2.6 5.2 0.00 0.00 0.00 91 1011.7
20260508055204 63 28 1.7 7.8 0.00 0.00 0.00 90 1011.8
20260508054704 63 33 5.2 10.4 0.00 0.00 0.00 89 1011.8
20260508054204 64 19 5.2 10.4 0.00 0.00 0.00 89 1012.3
20260508053704 64 358 6.1 11.3 0.00 0.00 0.00 88 1012.5
20260508053205 64 5 6.1 12.2 0.00 0.00 0.00 88 1012.5
20260508052703 64 10 7.8 12.2 0.00 0.00 0.00 87 1012.3
20260508051704 64 27 4.3 11.3 0.00 0.00 0.00 86 1012.6
20260508051204 64 33 2.6 5.2 0.00 0.00 0.00 86 1012.6
20260508050204 64 358 1.7 5.2 0.00 0.00 0.00 86 1012.7
20260508045204 64 19 4.3 6.1 0.00 0.00 0.00 87 1012.8
20260508044705 64 10 4.3 6.1 0.00 0.00 0.00 87 1012.7
20260508044204 64 358 1.7 4.3 0.00 0.00 0.00 87 1012.9
20260508043204 64 7 2.6 6.1 0.00 0.00 0.00 87 1012.7
20260508042204 64 21 5.2 13.0 0.00 0.00 0.00 87 1012.6
20260508041705 65 24 5.2 10.4 0.00 0.00 0.00 87 1013.1
20260508041204 65 5 6.1 12.2 0.00 0.00 0.00 86 1013.5
20260508040704 65 3 5.2 11.3 0.00 0.00 0.00 87 1013.2
20260508040204 64 30 7.8 12.2 0.00 0.00 0.00 87 1013.1
20260508034704 65 28 5.2 12.2 0.00 0.00 0.00 86 1012.7
20260508034204 66 24 9.6 21.7 0.00 0.00 0.00 83 1013.0